Location: México DF
(19.4326°N, 99.1332°W)
Time: 01:55:08
(UTC+00:00)

ISS - Pass Details

Date: 11 May 2026
Orbit: 414 x 424 km, 51.6° (Epoch: 15 May)

Event Time Altitude Azimuth Distance (km) Brightness Sun altitude
Rises 00:56:13 0° 229° (SW) 2,336 0.5 0.6°
Reaches altitude 10° 00:58:21 10° 236° (SW) 1,475 -0.4 0.2°
Maximum altitude 01:01:32 44° 310° (NW) 577 -2.3 -0.6°
Drops below altitude 10° 01:04:43 10° 24° (NNE) 1,476 -1.0 -1.3°
Sets 01:06:52 0° 31° (NNE) 2,339 -0.1 -1.7°
